Norwegian Sky — C6PZ8 — position and weather

sailwx.info

Track history (hours):
 
Tides and Currents Weather Stations Pressure Air Temp Water Temp Dewpoint Dewpoint Depression Visibility Wind Speed Wind Dir Waves Ship Positions

Norwegian Sky (Norway)

Operator: Norwegian Cruise Line

Last reported at 2017-Nov-18 01:14 UTC. Time now 2017-Nov-22 12:29 UTC.
Position N 25°59' W 079°36'.

Length 258 m; draft 8.2 m.

Type: Ship. MMSI: 308865000.

Date/timePositionNaut miles runAvg speedWind from/ knotsBaromVisibWave heightAir tempDewpointWater temp
2017-Nov-18 01:14N 25°59' W 079°36'315.0
2017-Nov-18 01:00N 25°58' W 079°39'714.9
2017-Nov-18 00:30N 25°55' W 079°47'714.5
2017-Nov-18 00:00N 25°51' W 079°54'713.4
2017-Nov-17 23:30N 25°48' W 080°00'510.0
2017-Nov-17 23:00N 25°46' W 080°06'4 8.1
2017-Nov-17 22:30N 25°47' W 080°10'0 0.2
2017-Nov-17 22:00N 25°47' W 080°10'0 0.1
2017-Nov-17 21:28N 25°47' W 080°10'0 0.0
2017-Nov-17 20:58N 25°47' W 080°10'0 0.0
2017-Nov-17 20:25N 25°47' W 080°10'0 0.0
2017-Nov-17 20:00N 25°47' W 080°10'0 0.0
2017-Nov-17 19:30N 25°47' W 080°10'0 0.0
2017-Nov-17 19:00N 25°47' W 080°10'0 0.0
2017-Nov-17 18:30N 25°47' W 080°10'0 0.0
2017-Nov-17 18:00N 25°47' W 080°10'0 0.0
2017-Nov-17 17:29N 25°47' W 080°10'0 0.0
2017-Nov-17 16:59N 25°47' W 080°10'0 0.0
2017-Nov-17 16:29N 25°47' W 080°10'0 0.0
2017-Nov-17 15:59N 25°47' W 080°10'0 0.0
2017-Nov-17 15:28N 25°47' W 080°10'0 0.0
2017-Nov-17 14:58N 25°47' W 080°10'0 0.0
2017-Nov-17 14:28N 25°47' W 080°10'0 0.0
2017-Nov-17 13:58N 25°47' W 080°10'0 0.0
2017-Nov-17 13:28N 25°47' W 080°10'0 0.0
2017-Nov-17 13:00N 25°47' W 080°10'0 0.0
2017-Nov-17 12:30N 25°47' W 080°10'0 0.0
2017-Nov-17 12:00N 25°47' W 080°10'0 0.0
2017-Nov-17 11:30N 25°47' W 080°10'0 0.0
2017-Nov-17 11:01N 25°47' W 080°10'2 4.5
2017-Nov-17 10:30N 25°46' W 080°08'510.7
2017-Nov-17 10:01N 25°47' W 080°02'3 5.7
2017-Nov-17 09:30N 25°48' W 079°59'4 7.8
2017-Nov-17 09:01N 25°50' W 079°55'4 7.6
2017-Nov-17 08:31N 25°52' W 079°52'4 7.5
2017-Nov-17 08:01N 25°53' W 079°48'4 7.6
2017-Nov-17 07:30N 25°55' W 079°44'4 7.5
2017-Nov-17 07:01N 25°57' W 079°40'4 7.4
2017-Nov-17 06:31N 25°59' W 079°37'4 7.0
2017-Nov-17 06:01N 26°01' W 079°34'4 7.1
2017-Nov-17 05:31N 26°04' W 079°31'4 7.5
2017-Nov-17 05:01N 26°06' W 079°28'4 7.5
2017-Nov-17 04:31N 26°08' W 079°24'4 7.4
2017-Nov-17 04:00N 26°09' W 079°20'4 7.6
2017-Nov-17 03:29N 26°12' W 079°17'  
2017-Nov-14 06:42N 26°17' W 079°19'2 7.8
2017-Nov-14 06:30N 26°15' W 079°19'4 6.7
2017-Nov-14 05:58N 26°12' W 079°21'3 6.0
2017-Nov-14 05:30N 26°10' W 079°24'3 5.9
2017-Nov-14 04:59N 26°08' W 079°26'3 6.2
2017-Nov-14 04:30N 26°06' W 079°29'3 6.3
2017-Nov-14 04:00N 26°05' W 079°32'3 6.3
2017-Nov-14 03:30N 26°03' W 079°34'3 6.4
2017-Nov-14 03:00N 26°01' W 079°37'3 6.5
2017-Nov-14 02:30N 25°59' W 079°40'3 6.6
2017-Nov-14 02:00N 25°57' W 079°43'3 6.3
2017-Nov-14 01:30N 25°55' W 079°46'3 6.3
2017-Nov-14 01:00N 25°54' W 079°49'3 6.9
2017-Nov-14 00:30N 25°52' W 079°52'3 6.9
2017-Nov-14 00:00N 25°50' W 079°56'3 6.4
2017-Nov-13 23:30N 25°48' W 079°59'3 6.4
2017-Nov-13 23:00N 25°47' W 080°02'4 7.1
2017-Nov-13 22:30N 25°46' W 080°06'4 7.9
2017-Nov-13 22:00N 25°46' W 080°10'  
2017-Nov-11 01:09N 26°03' W 079°26'315.2
2017-Nov-11 00:59N 26°02' W 079°29'815.5
2017-Nov-11 00:30N 25°58' W 079°36'815.8
2017-Nov-11 00:01N 25°55' W 079°44'816.0
2017-Nov-10 23:31N 25°51' W 079°51'816.1
2017-Nov-10 23:00N 25°47' W 079°59'612.2
2017-Nov-10 22:30N 25°46' W 080°06'4 7.4
2017-Nov-10 22:00N 25°46' W 080°10'0 0.0
2017-Nov-10 21:29N 25°46' W 080°10'0 0.0
2017-Nov-10 20:59N 25°46' W 080°10'0 0.0
2017-Nov-10 20:29N 25°46' W 080°10'0 0.0
2017-Nov-10 19:59N 25°46' W 080°10'0 0.0
2017-Nov-10 19:25N 25°46' W 080°10'0 0.0
2017-Nov-10 18:58N 25°46' W 080°10'0 0.0
2017-Nov-10 18:28N 25°46' W 080°10'0 0.0
2017-Nov-10 17:58N 25°46' W 080°10'0 0.0
2017-Nov-10 17:28N 25°46' W 080°10'0 0.0
2017-Nov-10 17:00N 25°46' W 080°10'0 0.0
2017-Nov-10 16:30N 25°46' W 080°10'0 0.0
2017-Nov-10 16:00N 25°46' W 080°10'0 0.0
2017-Nov-10 15:30N 25°46' W 080°10'0 0.0
2017-Nov-10 14:59N 25°46' W 080°10'0 0.0
2017-Nov-10 14:29N 25°46' W 080°10'0 0.0
2017-Nov-10 13:59N 25°46' W 080°10'0 0.0
2017-Nov-10 13:26N 25°46' W 080°10'0 0.0
2017-Nov-10 12:59N 25°46' W 080°10'0 0.0
2017-Nov-10 12:28N 25°46' W 080°10'0 0.0
2017-Nov-10 11:58N 25°46' W 080°10'0 0.0
2017-Nov-10 11:29N 25°46' W 080°10'1 1.8
2017-Nov-10 11:00N 25°47' W 080°11'2 3.4
2017-Nov-10 10:30N 25°46' W 080°09'510.8
2017-Nov-10 10:00N 25°46' W 080°03'4 7.8
2017-Nov-10 09:30N 25°48' W 079°59'4 8.6
2017-Nov-10 09:00N 25°50' W 079°55'4 8.5
2017-Nov-10 08:30N 25°52' W 079°51'4 8.3
2017-Nov-10 08:00N 25°54' W 079°47'4 8.4
2017-Nov-10 07:30N 25°56' W 079°43'4 8.6
2017-Nov-10 07:00N 25°58' W 079°38'4 8.7
2017-Nov-10 06:30N 26°01' W 079°34'4 8.4
2017-Nov-10 06:00N 26°03' W 079°30'4 8.7
2017-Nov-10 05:30N 26°05' W 079°26'4 8.2
2017-Nov-10 05:00N 26°07' W 079°22'4 8.1
2017-Nov-10 04:30N 26°09' W 079°18'510.2
2017-Nov-10 04:00N 26°12' W 079°14'8 0.5
2017-Nov-09 11:02N 26°06' W 079°20'019.3
2017-Nov-09 11:00N 26°06' W 079°20'1019.3
2017-Nov-09 10:30N 25°59' W 079°27'1019.6
2017-Nov-09 10:00N 25°51' W 079°34'1122.8
2017-Nov-09 09:30N 25°40' W 079°35'1122.7
2017-Nov-09 09:00N 25°28' W 079°36'  
Track history (hours):
 
Tides and Currents Weather Stations Pressure Air Temp Water Temp Dewpoint Dewpoint Depression Visibility Wind Speed Wind Dir Waves Ship Positions

Norwegian Sky (Norway)

Operator: Norwegian Cruise Line

Last reported at 2017-Nov-18 01:14 UTC. Time now 2017-Nov-22 12:29 UTC.
Position N 25°59' W 079°36'.

Length 258 m; draft 8.2 m.

Type: Ship. MMSI: 308865000.

Date/timePositionNaut miles runAvg speedWind from/ knotsBaromVisibWave heightAir tempDewpointWater temp
2017-Nov-18 01:14N 25°59' W 079°36'315.0
2017-Nov-18 01:00N 25°58' W 079°39'714.9
2017-Nov-18 00:30N 25°55' W 079°47'714.5
2017-Nov-18 00:00N 25°51' W 079°54'713.4
2017-Nov-17 23:30N 25°48' W 080°00'510.0
2017-Nov-17 23:00N 25°46' W 080°06'4 8.1
2017-Nov-17 22:30N 25°47' W 080°10'0 0.2
2017-Nov-17 22:00N 25°47' W 080°10'0 0.1
2017-Nov-17 21:28N 25°47' W 080°10'0 0.0
2017-Nov-17 20:58N 25°47' W 080°10'0 0.0
2017-Nov-17 20:25N 25°47' W 080°10'0 0.0
2017-Nov-17 20:00N 25°47' W 080°10'0 0.0
2017-Nov-17 19:30N 25°47' W 080°10'0 0.0
2017-Nov-17 19:00N 25°47' W 080°10'0 0.0
2017-Nov-17 18:30N 25°47' W 080°10'0 0.0
2017-Nov-17 18:00N 25°47' W 080°10'0 0.0
2017-Nov-17 17:29N 25°47' W 080°10'0 0.0
2017-Nov-17 16:59N 25°47' W 080°10'0 0.0
2017-Nov-17 16:29N 25°47' W 080°10'0 0.0
2017-Nov-17 15:59N 25°47' W 080°10'0 0.0
2017-Nov-17 15:28N 25°47' W 080°10'0 0.0
2017-Nov-17 14:58N 25°47' W 080°10'0 0.0
2017-Nov-17 14:28N 25°47' W 080°10'0 0.0
2017-Nov-17 13:58N 25°47' W 080°10'0 0.0
2017-Nov-17 13:28N 25°47' W 080°10'0 0.0
2017-Nov-17 13:00N 25°47' W 080°10'0 0.0
2017-Nov-17 12:30N 25°47' W 080°10'0 0.0
2017-Nov-17 12:00N 25°47' W 080°10'0 0.0
2017-Nov-17 11:30N 25°47' W 080°10'0 0.0
2017-Nov-17 11:01N 25°47' W 080°10'2 4.5
2017-Nov-17 10:30N 25°46' W 080°08'510.7
2017-Nov-17 10:01N 25°47' W 080°02'3 5.7
2017-Nov-17 09:30N 25°48' W 079°59'4 7.8
2017-Nov-17 09:01N 25°50' W 079°55'4 7.6
2017-Nov-17 08:31N 25°52' W 079°52'4 7.5
2017-Nov-17 08:01N 25°53' W 079°48'4 7.6
2017-Nov-17 07:30N 25°55' W 079°44'4 7.5
2017-Nov-17 07:01N 25°57' W 079°40'4 7.4
2017-Nov-17 06:31N 25°59' W 079°37'4 7.0
2017-Nov-17 06:01N 26°01' W 079°34'4 7.1
2017-Nov-17 05:31N 26°04' W 079°31'4 7.5
2017-Nov-17 05:01N 26°06' W 079°28'4 7.5
2017-Nov-17 04:31N 26°08' W 079°24'4 7.4
2017-Nov-17 04:00N 26°09' W 079°20'4 7.6
2017-Nov-17 03:29N 26°12' W 079°17'  
2017-Nov-14 06:42N 26°17' W 079°19'2 7.8
2017-Nov-14 06:30N 26°15' W 079°19'4 6.7
2017-Nov-14 05:58N 26°12' W 079°21'3 6.0
2017-Nov-14 05:30N 26°10' W 079°24'3 5.9
2017-Nov-14 04:59N 26°08' W 079°26'3 6.2
2017-Nov-14 04:30N 26°06' W 079°29'3 6.3
2017-Nov-14 04:00N 26°05' W 079°32'3 6.3
2017-Nov-14 03:30N 26°03' W 079°34'3 6.4
2017-Nov-14 03:00N 26°01' W 079°37'3 6.5
2017-Nov-14 02:30N 25°59' W 079°40'3 6.6
2017-Nov-14 02:00N 25°57' W 079°43'3 6.3
2017-Nov-14 01:30N 25°55' W 079°46'3 6.3
2017-Nov-14 01:00N 25°54' W 079°49'3 6.9
2017-Nov-14 00:30N 25°52' W 079°52'3 6.9
2017-Nov-14 00:00N 25°50' W 079°56'3 6.4
2017-Nov-13 23:30N 25°48' W 079°59'3 6.4
2017-Nov-13 23:00N 25°47' W 080°02'4 7.1
2017-Nov-13 22:30N 25°46' W 080°06'4 7.9
2017-Nov-13 22:00N 25°46' W 080°10'  
2017-Nov-11 01:09N 26°03' W 079°26'315.2
2017-Nov-11 00:59N 26°02' W 079°29'815.5
2017-Nov-11 00:30N 25°58' W 079°36'815.8
2017-Nov-11 00:01N 25°55' W 079°44'816.0
2017-Nov-10 23:31N 25°51' W 079°51'816.1
2017-Nov-10 23:00N 25°47' W 079°59'612.2
2017-Nov-10 22:30N 25°46' W 080°06'4 7.4
2017-Nov-10 22:00N 25°46' W 080°10'0 0.0
2017-Nov-10 21:29N 25°46' W 080°10'0 0.0
2017-Nov-10 20:59N 25°46' W 080°10'0 0.0
2017-Nov-10 20:29N 25°46' W 080°10'0 0.0
2017-Nov-10 19:59N 25°46' W 080°10'0 0.0
2017-Nov-10 19:25N 25°46' W 080°10'0 0.0
2017-Nov-10 18:58N 25°46' W 080°10'0 0.0
2017-Nov-10 18:28N 25°46' W 080°10'0 0.0
2017-Nov-10 17:58N 25°46' W 080°10'0 0.0
2017-Nov-10 17:28N 25°46' W 080°10'0 0.0
2017-Nov-10 17:00N 25°46' W 080°10'0 0.0
2017-Nov-10 16:30N 25°46' W 080°10'0 0.0
2017-Nov-10 16:00N 25°46' W 080°10'0 0.0
2017-Nov-10 15:30N 25°46' W 080°10'0 0.0
2017-Nov-10 14:59N 25°46' W 080°10'0 0.0
2017-Nov-10 14:29N 25°46' W 080°10'0 0.0
2017-Nov-10 13:59N 25°46' W 080°10'0 0.0
2017-Nov-10 13:26N 25°46' W 080°10'0 0.0
2017-Nov-10 12:59N 25°46' W 080°10'0 0.0
2017-Nov-10 12:28N 25°46' W 080°10'0 0.0
2017-Nov-10 11:58N 25°46' W 080°10'0 0.0
2017-Nov-10 11:29N 25°46' W 080°10'1 1.8
2017-Nov-10 11:00N 25°47' W 080°11'2 3.4
2017-Nov-10 10:30N 25°46' W 080°09'510.8
2017-Nov-10 10:00N 25°46' W 080°03'4 7.8
2017-Nov-10 09:30N 25°48' W 079°59'4 8.6
2017-Nov-10 09:00N 25°50' W 079°55'4 8.5
2017-Nov-10 08:30N 25°52' W 079°51'4 8.3
2017-Nov-10 08:00N 25°54' W 079°47'4 8.4
2017-Nov-10 07:30N 25°56' W 079°43'4 8.6
2017-Nov-10 07:00N 25°58' W 079°38'4 8.7
2017-Nov-10 06:30N 26°01' W 079°34'4 8.4
2017-Nov-10 06:00N 26°03' W 079°30'4 8.7
2017-Nov-10 05:30N 26°05' W 079°26'4 8.2
2017-Nov-10 05:00N 26°07' W 079°22'4 8.1
2017-Nov-10 04:30N 26°09' W 079°18'510.2
2017-Nov-10 04:00N 26°12' W 079°14'8 0.5
2017-Nov-09 11:02N 26°06' W 079°20'019.3
2017-Nov-09 11:00N 26°06' W 079°20'1019.3
2017-Nov-09 10:30N 25°59' W 079°27'1019.6
2017-Nov-09 10:00N 25°51' W 079°34'1122.8
2017-Nov-09 09:30N 25°40' W 079°35'1122.7
2017-Nov-09 09:00N 25°28' W 079°36'  

Dump ship's entire track history